TimeCDT,TemperatureF,Dew PointF,Humidity,Sea Level PressureIn,VisibilityMPH,Wind Direction,Wind SpeedMPH,Gust SpeedMPH,PrecipitationIn,Events,Conditions,WindDirDegrees,DateUTC
12:15 AM,32.2,18.5,57,30.18,10.0,WNW,8.1,-,N/A,,Scattered Clouds,300,2013-03-20 05:15:00
12:35 AM,32.0,18.1,57,30.18,10.0,WNW,8.1,-,N/A,,Scattered Clouds,300,2013-03-20 05:35:00
12:55 AM,32.0,17.6,55,30.18,10.0,WNW,8.1,-,N/A,,Clear,300,2013-03-20 05:55:00
1:15 AM,31.6,18.1,57,30.18,10.0,NW,6.9,-,N/A,,Clear,310,2013-03-20 06:15:00
1:35 AM,31.8,19.2,60,30.19,10.0,NW,18.4,24.2,N/A,,Mostly Cloudy,320,2013-03-20 06:35:00
1:55 AM,30.6,18.3,60,30.20,10.0,NNW,24.2,31.1,N/A,,Overcast,330,2013-03-20 06:55:00
2:15 AM,28.8,10.4,46,30.22,10.0,NW,16.1,24.2,N/A,,Scattered Clouds,310,2013-03-20 07:15:00
2:35 AM,26.1,5.4,41,30.22,10.0,WNW,16.1,24.2,N/A,,Clear,300,2013-03-20 07:35:00
2:55 AM,24.8,5.9,45,30.23,10.0,NW,16.1,29.9,N/A,,Clear,310,2013-03-20 07:55:00
3:15 AM,24.3,6.8,47,30.22,10.0,WNW,15.0,23.0,N/A,,Clear,300,2013-03-20 08:15:00
3:35 AM,23.7,5.2,45,30.22,10.0,NW,19.6,25.3,N/A,,Clear,320,2013-03-20 08:35:00
3:55 AM,23.0,6.3,49,30.22,10.0,NW,11.5,23.0,N/A,,Clear,320,2013-03-20 08:55:00
4:15 AM,23.0,6.3,49,30.23,10.0,WNW,16.1,20.7,N/A,,Clear,300,2013-03-20 09:15:00
4:35 AM,22.1,5.5,49,30.23,10.0,NW,13.8,25.3,N/A,,Clear,320,2013-03-20 09:35:00
4:55 AM,22.1,7.0,52,30.23,10.0,NW,12.7,21.9,N/A,,Clear,320,2013-03-20 09:55:00
5:15 AM,21.9,7.3,54,30.24,10.0,NW,10.4,23.0,N/A,,Scattered Clouds,310,2013-03-20 10:15:00
5:35 AM,21.6,6.4,52,30.25,10.0,NW,15.0,24.2,N/A,,Scattered Clouds,310,2013-03-20 10:35:00
5:55 AM,21.2,7.0,54,30.25,10.0,WNW,15.0,21.9,N/A,,Clear,300,2013-03-20 10:55:00
6:15 AM,21.2,7.2,55,30.25,10.0,WNW,11.5,18.4,N/A,,Clear,300,2013-03-20 11:15:00
6:35 AM,21.6,7.5,55,30.25,10.0,WNW,12.7,23.0,N/A,,Scattered Clouds,300,2013-03-20 11:35:00
6:55 AM,21.4,6.6,53,30.26,10.0,NW,15.0,24.2,N/A,,Clear,310,2013-03-20 11:55:00
7:15 AM,21.2,6.4,53,30.27,10.0,NW,11.5,25.3,N/A,,Clear,310,2013-03-20 12:15:00
7:35 AM,21.2,6.6,53,30.27,10.0,NW,16.1,25.3,N/A,,Mostly Cloudy,320,2013-03-20 12:35:00
7:55 AM,21.6,6.6,53,30.27,10.0,NW,13.8,27.6,N/A,,Overcast,310,2013-03-20 12:55:00
8:15 AM,21.7,7.7,55,30.27,10.0,NW,15.0,20.7,N/A,,Overcast,320,2013-03-20 13:15:00
8:35 AM,22.3,7.2,52,30.27,10.0,NW,16.1,24.2,N/A,,Overcast,310,2013-03-20 13:35:00
8:55 AM,22.8,0.5,38,30.27,10.0,NW,20.7,29.9,N/A,,Scattered Clouds,310,2013-03-20 13:55:00
9:15 AM,23.2,1.9,40,30.27,10.0,WNW,16.1,26.5,N/A,,Clear,300,2013-03-20 14:15:00
9:35 AM,23.9,-1.3,33,30.27,10.0,NW,16.1,23.0,N/A,,Scattered Clouds,310,2013-03-20 14:35:00
9:55 AM,23.7,-2.9,31,30.27,10.0,NW,19.6,27.6,N/A,,Clear,310,2013-03-20 14:55:00
10:15 AM,25.0,-2.2,31,30.27,10.0,NW,19.6,25.3,N/A,,Clear,310,2013-03-20 15:15:00
10:55 AM,26.1,-2.4,29,30.26,10.0,NW,16.1,26.5,N/A,,Clear,310,2013-03-20 15:55:00
11:15 AM,27.0,-2.0,29,30.26,10.0,WNW,20.7,26.5,N/A,,Clear,300,2013-03-20 16:15:00
11:35 AM,27.5,-1.8,28,30.26,10.0,WNW,17.3,26.5,N/A,,Clear,300,2013-03-20 16:35:00
11:55 AM,28.4,-1.5,28,30.25,10.0,WNW,18.4,26.5,N/A,,Clear,300,2013-03-20 16:55:00
12:15 PM,29.3,-0.4,28,30.25,10.0,WNW,20.7,31.1,N/A,,Clear,300,2013-03-20 17:15:00
12:35 PM,29.1,0.7,30,30.25,10.0,WNW,21.9,28.8,N/A,,Clear,290,2013-03-20 17:35:00
12:55 PM,29.7,-0.2,28,30.24,10.0,WNW,18.4,26.5,N/A,,Scattered Clouds,290,2013-03-20 17:55:00
1:15 PM,29.8,-2.7,25,30.23,10.0,WNW,20.7,29.9,N/A,,Scattered Clouds,300,2013-03-20 18:15:00
1:35 PM,30.7,-0.9,26,30.22,10.0,WNW,19.6,29.9,N/A,,Scattered Clouds,300,2013-03-20 18:35:00
1:55 PM,31.1,-2.2,24,30.21,10.0,WNW,13.8,28.8,N/A,,Clear,300,2013-03-20 18:55:00
2:15 PM,31.5,0.7,27,30.20,10.0,WNW,20.7,31.1,N/A,,Scattered Clouds,290,2013-03-20 19:15:00
2:35 PM,32.0,0.1,26,30.20,10.0,WNW,20.7,31.1,N/A,,Scattered Clouds,300,2013-03-20 19:35:00
2:55 PM,32.0,0.5,26,30.19,10.0,WNW,13.8,21.9,N/A,,Scattered Clouds,300,2013-03-20 19:55:00
3:15 PM,31.8,-0.0,26,30.18,10.0,NW,17.3,31.1,N/A,,Mostly Cloudy,320,2013-03-20 20:15:00
3:35 PM,32.2,0.5,26,30.18,10.0,WNW,18.4,26.5,N/A,,Scattered Clouds,300,2013-03-20 20:35:00
3:55 PM,32.9,1.8,27,30.17,10.0,WNW,25.3,31.1,N/A,,Mostly Cloudy,290,2013-03-20 20:55:00
4:15 PM,32.7,0.3,25,30.17,10.0,West,18.4,29.9,N/A,,Mostly Cloudy,280,2013-03-20 21:15:00
4:35 PM,32.5,-1.3,24,30.17,10.0,WNW,21.9,28.8,N/A,,Mostly Cloudy,290,2013-03-20 21:35:00
4:55 PM,32.0,-0.4,25,30.16,10.0,NW,12.7,24.2,N/A,,Scattered Clouds,310,2013-03-20 21:55:00
5:15 PM,31.8,1.0,27,30.16,10.0,WNW,17.3,24.2,N/A,,Scattered Clouds,300,2013-03-20 22:15:00
5:35 PM,31.6,0.3,26,30.16,10.0,NW,15.0,24.2,N/A,,Scattered Clouds,310,2013-03-20 22:35:00
5:55 PM,31.8,-1.3,24,30.16,10.0,WNW,18.4,28.8,N/A,,Clear,300,2013-03-20 22:55:00
6:15 PM,31.6,0.9,27,30.15,10.0,WNW,19.6,25.3,N/A,,Mostly Cloudy,290,2013-03-20 23:15:00
6:35 PM,31.5,1.8,28,30.16,10.0,WNW,11.5,21.9,N/A,,Mostly Cloudy,300,2013-03-20 23:35:00
6:55 PM,30.2,2.7,31,30.16,10.0,NW,15.0,19.6,N/A,,Mostly Cloudy,310,2013-03-20 23:55:00
7:15 PM,29.3,4.6,35,30.15,10.0,WNW,12.7,18.4,N/A,,Scattered Clouds,300,2013-03-21 00:15:00
7:35 PM,29.1,4.5,35,30.15,10.0,WNW,16.1,20.7,N/A,,Scattered Clouds,300,2013-03-21 00:35:00
7:55 PM,28.8,4.6,36,30.15,10.0,WNW,13.8,18.4,N/A,,Scattered Clouds,290,2013-03-21 00:55:00
8:15 PM,28.4,5.4,38,30.14,10.0,WNW,12.7,18.4,N/A,,Scattered Clouds,300,2013-03-21 01:15:00
8:35 PM,28.0,6.8,41,30.14,10.0,WNW,10.4,17.3,N/A,,Clear,290,2013-03-21 01:35:00
8:55 PM,27.9,7.3,42,30.14,10.0,WNW,10.4,-,N/A,,Clear,300,2013-03-21 01:55:00
9:15 PM,27.5,7.7,43,30.13,10.0,WNW,6.9,-,N/A,,Clear,300,2013-03-21 02:15:00
9:35 PM,27.1,8.4,45,30.13,10.0,WNW,8.1,-,N/A,,Clear,300,2013-03-21 02:35:00
9:55 PM,26.6,9.0,47,30.13,10.0,WNW,8.1,-,N/A,,Clear,300,2013-03-21 02:55:00
10:15 PM,26.2,9.5,49,30.13,10.0,NW,5.8,-,N/A,,Clear,310,2013-03-21 03:15:00
10:35 PM,26.1,9.5,50,30.13,10.0,NW,8.1,-,N/A,,Clear,310,2013-03-21 03:35:00
10:55 PM,26.2,8.8,48,30.13,10.0,WNW,8.1,-,N/A,,Clear,300,2013-03-21 03:55:00
11:15 PM,25.5,9.3,50,30.13,10.0,NW,10.4,-,N/A,,Clear,320,2013-03-21 04:15:00
11:35 PM,25.5,9.5,51,30.13,10.0,NW,9.2,-,N/A,,Clear,320,2013-03-21 04:35:00
11:55 PM,25.0,10.4,54,30.13,10.0,NNW,9.2,-,N/A,,Clear,330,2013-03-21 04:55:00